CW8854 Weather Reports


Display with metric or nautical units.
time (UTC)temp
F
wind
direction
speed
MPH
gust
MPH
rain 1hr
in
rain 24hr
in
rain mn
in
humidity
%
barometer
mb
20260505010051 71 36 4.0 10.0 0.00 0.00 0.00 33 1009.5
20260505004549 71 344 3.0 10.0 0.00 0.00 0.00 33 1009.5
20260505003050 72 132 3.0 11.0 0.00 0.00 0.00 32 1009.4
20260505001554 72 19 3.0 9.0 0.00 0.00 0.00 32 1009.4
20260505000105 72 66 3.0 11.0 0.00 0.00 0.00 30 1009.5
20260504234602 72 40 4.0 12.0 0.00 0.00 0.00 31 1009.5
20260504233046 72 72 4.0 13.0 0.00 0.00 0.00 31 1009.5
20260504231559 73 43 4.0 15.0 0.00 0.00 0.00 30 1009.5
20260504230052 73 22 4.0 12.0 0.00 0.00 0.00 30 1009.5
20260504224555 73 89 3.0 9.0 0.00 0.00 0.00 30 1009.7
20260504223055 73 70 4.0 12.0 0.00 0.00 0.00 31 1009.8
20260504221559 73 333 5.0 12.0 0.00 0.00 0.00 32 1009.8
20260504220053 73 344 3.0 13.0 0.00 0.00 0.00 32 1009.8
20260504214552 73 55 3.0 10.0 0.00 0.00 0.00 36 1009.9
20260504213053 72 0 2.0 12.0 0.00 0.00 0.00 33 1010.0
20260504211557 71 329 4.0 11.0 0.00 0.00 0.00 34 1010.1
20260504210108 71 333 8.0 16.0 0.00 0.00 0.00 34 1010.2
20260504204601 71 240 4.0 11.0 0.00 0.00 0.00 34 1010.3
20260504203052 71 349 6.0 14.0 0.00 0.00 0.00 34 1010.3
20260504201554 71 56 2.0 10.0 0.00 0.00 0.00 35 1010.3
20260504200100 71 27 7.0 14.0 0.00 0.00 0.00 36 1010.4
20260504194602 71 38 4.0 12.0 0.00 0.00 0.00 35 1010.4
20260504193053 70 355 3.0 10.0 0.00 0.00 0.00 37 1010.4
20260504191556 70 47 4.0 10.0 0.00 0.00 0.00 37 1010.4
20260504190117 69 85 4.0 12.0 0.00 0.00 0.00 38 1010.4
20260504184557 68 38 4.0 12.0 0.00 0.00 0.00 40 1010.4
20260504183053 68 46 5.0 13.0 0.00 0.00 0.00 39 1010.7
20260504181558 67 72 5.0 11.0 0.00 0.00 0.00 40 1010.7
20260504180143 67 339 4.0 11.0 0.00 0.00 0.00 40 1010.7
20260504174552 66 19 4.0 10.0 0.00 0.00 0.00 41 1010.6
20260504173114 66 70 6.0 10.0 0.00 0.00 0.00 42 1010.6
20260504171553 65 33 3.0 13.0 0.00 0.00 0.00 42 1010.7
20260504140112 43 0 0.0 0.0 0.00 0.00 0.00 93 1010.4
20260504120112 40 0 0.0 0.0 0.00 0.00 0.00 89 1009.6
20260504081601 47 0 0.0 0.0 0.00 0.00 0.00 78 1009.1
20260504050118 54 202 1.0 3.0 0.00 0.00 0.00 68 1009.5
20260504044558 55 0 0.0 0.0 0.00 0.00 0.00 65 1009.7
20260504043100 56 0 0.0 0.0 0.00 0.00 0.00 64 1009.7
20260504041551 57 0 0.0 0.0 0.00 0.00 0.00 65 1009.6
20260504040105 58 0 0.0 4.0 0.00 0.00 0.00 62 1009.5
20260504034556 59 214 0.0 4.0 0.00 0.00 0.00 61 1009.4
20260504033051 60 224 0.0 3.0 0.00 0.00 0.00 58 1009.4
20260504031614 63 224 0.0 3.0 0.00 0.00 0.00 54 1009.3
20260504030052 65 0 0.0 0.0 0.00 0.00 0.00 52 1009.2
20260504024554 67 0 0.0 1.0 0.00 0.00 0.00 45 1009.3
20260504023054 69 0 0.0 2.0 0.00 0.00 0.00 42 1009.4
20260504021600 70 0 0.0 2.0 0.00 0.00 0.00 37 1009.3
20260504020052 71 233 1.0 4.0 0.00 0.00 0.00 39 1009.6
20260504014552 72 203 1.0 6.0 0.00 0.00 0.00 33 1009.7
20260504013113 73 188 0.0 4.0 0.00 0.00 0.00 32 1009.8
20260504011556 74 176 2.0 5.0 0.00 0.00 0.00 31 1009.9